Bay City, TX

4:49 AM CST on February 25, 2017 (GMT -0600)
Bay City

Weather History for KBYY - August, 2014

Change the Weather History Date:

Saturday, August 9, 2014

  Actual Average (KLBX) Record (KLBX)
Temperature  
Mean Temperature 86 °F -  
Max Temperature 95 °F 90 °F 98 °F (2011)
Min Temperature 77 °F 72 °F 69 °F (2004)
Cooling Degree Days 21    
Growing Degree Days 36 (Base 50)    
Moisture  
Dew Point 78 °F    
Average Humidity 79    
Maximum Humidity 100    
Minimum Humidity 49    
Precipitation  
Precipitation 0.00 in - - ()
Sea Level Pressure  
Sea Level Pressure 29.98 in    
Wind  
Wind Speed 4 mph (South)    
Max Wind Speed 14 mph    
Max Gust Speed 21 mph    
Visibility 9 miles    
Events      
Averages and records for this station are not official NWS values.
T = Trace of Precipitation, MM = Missing Value Source: NWS Daily Summary

Daily Weather History Graph

Daily Weather History Graph

Search for Another Location

Airport or City:

Trip Planner

Search our weather history database for the weather conditions in past years. The results will help you decide how hot, cold, wet, or windy it might be!

Date:

Astronomy

Aug. 09, 2014 Rise Set
Actual Time 6:48 AM CDT 8:08 PM CDT
Civil Twilight 6:23 AM CDT 8:33 PM CDT
Nautical Twilight 5:53 AM CDT 9:03 PM CDT
Astronomical Twilight 5:22 AM CDT 9:34 PM CDT
Moon 7:12 PM CDT (8/9) 5:31 AM CDT (8/9)
Length of Visible Light 14h 09m
Length of Day
13h 19m
Waxing Gibbous, 98% of the Moon is Illuminated
Aug 9
Waxing Gibbous
Aug 10
Full
Aug 17
Last Quarter
Aug 25
New
Sep 2
First Quarter

Hourly Weather History & Observations

Time (CDT) Temp. Heat Index Dew Point Humidity Pressure Visibility Wind Dir Wind Speed Gust Speed Precip Events Conditions
12:15 AM 78.8 °F - 78.8 °F 100% 29.99 in 10.0 mi Calm Calm - N/A   Clear
12:35 AM 79.2 °F - 79.2 °F 100% 29.98 in 10.0 mi SSE 3.5 mph - N/A   Clear
12:55 AM 79.9 °F - 79.9 °F 100% 29.99 in 10.0 mi SSE 3.5 mph - N/A   Clear
1:15 AM 80.2 °F 88.0 °F 80.2 °F 100% 29.98 in 10.0 mi SSE 4.6 mph - N/A   Clear
1:35 AM 80.6 °F 89.3 °F 80.6 °F 100% 29.98 in 10.0 mi SSE 4.6 mph - N/A   Clear
1:55 AM 80.2 °F 88.0 °F 80.2 °F 100% 29.98 in 10.0 mi SSE 3.5 mph - N/A   Clear
2:15 AM 80.4 °F 88.7 °F 80.4 °F 100% 29.98 in 10.0 mi South 4.6 mph - N/A   Clear
2:35 AM 80.6 °F 89.3 °F 80.6 °F 100% 29.98 in 10.0 mi South 3.5 mph - N/A   Clear
2:55 AM 80.8 °F 90.0 °F 80.8 °F 100% 29.98 in 10.0 mi Calm Calm - N/A   Scattered Clouds
3:15 AM 80.6 °F 89.3 °F 80.6 °F 100% 29.97 in 10.0 mi South 3.5 mph - N/A   Clear
3:35 AM 80.2 °F 88.0 °F 80.2 °F 100% 29.97 in 10.0 mi Calm Calm - N/A   Clear
3:55 AM 79.7 °F - 79.7 °F 100% 29.96 in 7.0 mi Calm Calm - N/A   Clear
4:15 AM 79.2 °F - 79.2 °F 100% 29.96 in 5.0 mi Calm Calm - N/A   Scattered Clouds
4:35 AM 79.2 °F - 79.2 °F 100% 29.96 in 4.0 mi Calm Calm - N/A   Scattered Clouds
4:55 AM 78.8 °F - 78.8 °F 100% 29.96 in 7.0 mi SSE 3.5 mph - N/A   Clear
5:15 AM 79.0 °F - 79.0 °F 100% 29.96 in 7.0 mi Calm Calm - N/A   Clear
5:35 AM 78.3 °F - 78.3 °F 100% 29.96 in 7.0 mi Calm Calm - N/A   Clear
5:55 AM 78.6 °F - 78.6 °F 100% 29.97 in 2.5 mi Calm Calm - N/A   Mist
6:15 AM 79.2 °F - 79.2 °F 100% 29.97 in 7.0 mi Calm Calm - N/A   Clear
6:35 AM 79.0 °F - 79.0 °F 100% 29.97 in 1.8 mi Calm Calm - N/A   Mist
6:55 AM 78.4 °F - 78.4 °F 100% 29.98 in 2.0 mi Calm Calm - N/A   Clear
7:15 AM 77.5 °F - 77.5 °F 100% 29.99 in 5.0 mi Calm Calm - N/A   Clear
7:35 AM 78.3 °F - 78.3 °F 100% 29.99 in 7.0 mi Calm Calm - N/A   Clear
7:55 AM 80.4 °F 88.7 °F 80.4 °F 100% 29.99 in 10.0 mi Calm Calm - N/A   Clear
8:15 AM 82.0 °F 94.7 °F 82.0 °F 100% 30.01 in 10.0 mi Calm Calm - N/A   Clear
8:35 AM 84.6 °F 105.1 °F 84.6 °F 100% 30.01 in 10.0 mi South 5.8 mph - N/A   Clear
8:55 AM 86.4 °F 109.9 °F 84.7 °F 95% 30.02 in 10.0 mi SSW 6.9 mph - N/A   Scattered Clouds
9:15 AM 86.4 °F 106.1 °F 82.9 °F 89% 30.03 in 10.0 mi SW 5.8 mph - N/A   Scattered Clouds
9:35 AM 86.4 °F 103.7 °F 81.3 °F 85% 30.03 in 10.0 mi SSW 9.2 mph - N/A   Scattered Clouds
9:55 AM 89.2 °F 101.8 °F 77.2 °F 67% 30.03 in 10.0 mi SSW 11.5 mph - N/A   Scattered Clouds
10:15 AM 90.1 °F 103.0 °F 76.8 °F 65% 30.03 in 10.0 mi SSW 6.9 mph - N/A   Clear
10:35 AM 89.2 °F 101.2 °F 76.5 °F 66% 30.04 in 10.0 mi Calm Calm - N/A   Clear
10:55 AM 91.0 °F 99.8 °F 73.2 °F 56% 30.03 in 10.0 mi SSW 8.1 mph - N/A   Clear
11:15 AM 93.0 °F 101.9 °F 73.0 °F 52% 30.03 in 10.0 mi SW 6.9 mph - N/A   Scattered Clouds
11:35 AM 93.4 °F 102.1 °F 73.0 °F 51% 30.03 in 10.0 mi SW 8.1 mph - N/A   Scattered Clouds
11:55 AM 93.7 °F 102.9 °F 72.9 °F 51% 30.03 in 10.0 mi SW 9.2 mph - N/A   Mostly Cloudy
12:15 PM 94.1 °F 103.1 °F 72.9 °F 50% 30.03 in 10.0 mi SW 5.8 mph 10.4 mph N/A   Scattered Clouds
12:35 PM 93.4 °F 103.4 °F 73.9 °F 53% 30.02 in 10.0 mi SSE 10.4 mph - N/A   Scattered Clouds
12:55 PM 92.5 °F 103.2 °F 74.7 °F 56% 30.02 in 10.0 mi SSW 10.4 mph - N/A   Scattered Clouds
1:15 PM 93.2 °F 104.3 °F 74.7 °F 55% 30.01 in 10.0 mi South 8.1 mph 16.1 mph N/A   Mostly Cloudy
1:35 PM 93.9 °F 105.4 °F 74.8 °F 54% 30.00 in 10.0 mi SSW 12.7 mph 20.7 mph N/A   Mostly Cloudy
1:55 PM 94.5 °F 106.0 °F 75.0 °F 53% 30.00 in 10.0 mi SSW 8.1 mph 16.1 mph N/A   Mostly Cloudy
2:15 PM 94.1 °F 105.9 °F 75.2 °F 54% 29.99 in 10.0 mi SSW 11.5 mph 17.3 mph N/A   Mostly Cloudy
2:35 PM 95.7 °F 108.5 °F 75.4 °F 52% 29.99 in 10.0 mi SSW 13.8 mph 18.4 mph N/A   Mostly Cloudy
2:55 PM 95.7 °F 107.7 °F 75.0 °F 51% 29.98 in 10.0 mi South 12.7 mph 17.3 mph N/A   Scattered Clouds
3:15 PM 95.5 °F 107.3 °F 74.8 °F 51% 29.98 in 10.0 mi South 11.5 mph 16.1 mph N/A   Scattered Clouds
3:35 PM 95.4 °F 106.8 °F 74.5 °F 51% 29.98 in 10.0 mi SSW 11.5 mph 19.6 mph N/A   Mostly Cloudy
3:55 PM 95.0 °F 104.5 °F 73.4 °F 49% 29.96 in 10.0 mi South 6.9 mph - N/A   Scattered Clouds
4:15 PM 95.9 °F 106.6 °F 74.1 °F 49% 29.96 in 10.0 mi SSE 5.8 mph - N/A   Scattered Clouds
4:35 PM 95.7 °F 106.9 °F 74.1 °F 50% 29.96 in 10.0 mi SSE 9.2 mph - N/A   Mostly Cloudy
4:55 PM 93.9 °F 104.7 °F 74.3 °F 53% 29.95 in 10.0 mi SSE 6.9 mph 16.1 mph N/A   Mostly Cloudy
5:15 PM 91.2 °F 100.8 °F 74.3 °F 57% 29.95 in 10.0 mi Calm Calm - N/A   Overcast
5:35 PM 89.4 °F 99.4 °F 74.7 °F 62% 29.94 in 10.0 mi NE 3.5 mph - N/A   Overcast
5:55 PM 91.9 °F 102.6 °F 74.8 °F 57% 29.94 in 10.0 mi SE 6.9 mph - N/A   Overcast
6:15 PM 90.9 °F 102.4 °F 75.7 °F 61% 29.94 in 10.0 mi SE 10.4 mph - N/A   Overcast
6:35 PM 91.4 °F 103.8 °F 76.1 °F 61% 29.94 in 10.0 mi SSE 10.4 mph - N/A   Scattered Clouds
6:55 PM 91.0 °F 102.2 °F 75.6 °F 60% 29.94 in 10.0 mi SSE 10.4 mph - N/A   Clear
7:15 PM 89.4 °F 100.0 °F 75.6 °F 63% 29.94 in 10.0 mi SSE 8.1 mph - N/A   Clear
7:35 PM 88.9 °F 99.7 °F 75.9 °F 65% 29.94 in 10.0 mi SSE 8.1 mph - N/A   Clear
7:55 PM 87.6 °F 99.2 °F 76.8 °F 70% 29.95 in 10.0 mi SSE 8.1 mph - N/A   Clear
8:15 PM 86.5 °F 98.3 °F 77.2 °F 74% 29.94 in 10.0 mi SSE 6.9 mph - N/A   Clear
8:35 PM 85.3 °F 96.7 °F 77.9 °F 78% 29.95 in 10.0 mi SE 5.8 mph - N/A   Clear
8:55 PM 84.4 °F 95.4 °F 77.9 °F 81% 29.95 in 10.0 mi SSE 5.8 mph - N/A   Clear
9:15 PM 83.7 °F 94.5 °F 78.4 °F 84% 29.96 in 10.0 mi SSE 6.9 mph - N/A   Clear
9:35 PM 83.3 °F 95.3 °F 79.9 °F 89% 29.98 in 10.0 mi SSE 4.6 mph - N/A   Clear
9:55 PM 83.3 °F 96.4 °F 80.6 °F 92% 29.98 in 10.0 mi SSE 4.6 mph - N/A   Clear
10:15 PM 82.6 °F 95.4 °F 81.3 °F 96% 29.99 in 10.0 mi SSE 3.5 mph - N/A   Clear
10:35 PM 80.6 °F 89.3 °F 80.6 °F 100% 30.00 in 10.0 mi SE 3.5 mph - N/A   Clear
11:15 PM 81.1 °F 91.3 °F 81.1 °F 100% 30.00 in 10.0 mi Calm Calm - N/A   Clear
11:35 PM 80.8 °F 90.0 °F 80.8 °F 100% 30.01 in 10.0 mi SE 3.5 mph - N/A   Clear
11:55 PM 80.6 °F 89.3 °F 80.6 °F 100% 30.01 in 10.0 mi SE 3.5 mph - N/A   Clear